Weather History for Las Vegas, NV

Change the Weather History Date:

Wednesday, February 20, 2013

  Actual Average Record
Temperature  
Mean Temperature 30 °F -  
Max Temperature 37 °F - - ()
Min Temperature 21 °F - - ()
Degree Days  
Heating Degree Days 34    
Moisture  
Dew Point 22 °F    
Average Humidity 76    
Maximum Humidity 100    
Minimum Humidity 53    
Precipitation  
Precipitation 0.80 in - - ()
Sea Level Pressure  
Sea Level Pressure 29.75 in    
Wind  
Wind Speed 8 mph (NNW)    
Max Wind Speed 21 mph    
Max Gust Speed 28 mph    
Visibility 8 miles    
Events Snow    
T = Trace of Precipitation, MM = Missing Value Source: NWS Daily Summary

Daily Weather History Graph

Daily Weather History Graph

Search for Another Location

Airport:

Trip Planner

Search our weather history database for the weather conditions in past years. The results will help you decide how hot, cold, wet, or windy it might be!

Date:

Astronomy

Feb. 20, 2013 Rise Set
Actual Time 6:27 AM PST 5:30 PM PST
Civil Twilight 6:01 AM PST 5:56 PM PST
Nautical Twilight 5:30 AM PST 6:27 PM PST
Astronomical Twilight 5:00 AM PST 6:57 PM PST
Moon 12:58 PM PST (2/20) 2:48 AM PST (2/20)
Length of Visible Light 11h 55m
Length of Day
11h 02m
Waxing Gibbous, 77% of the Moon is Illuminated
Feb 20
Waxing Gibbous
Feb 25
Full
Mar 4
Last Quarter
Mar 11
New
Mar 19
First Quarter

Hourly Weather History & Observations

Time (PST) Temp. Windchill Dew Point Humidity Pressure Visibility Wind Dir Wind Speed Gust Speed Precip Events Conditions
12:30 AM 26.6 °F 21.2 °F 23.0 °F 86% 29.48 in 3.0 mi West 4.6 mph - 0.00 in Snow Light Snow
12:54 AM 26.6 °F 20.0 °F 23.0 °F 86% 29.48 in 1.8 mi SW 5.8 mph - 0.00 in Snow Light Snow
12:56 AM 26.1 °F 20.5 °F 24.1 °F 92% 29.81 in 1.8 mi SW 4.6 mph - 0.00 in Snow Light Snow
1:25 AM 26.6 °F 22.6 °F 24.8 °F 93% 29.47 in 2.5 mi SSW 3.5 mph - 0.00 in Snow Light Snow
1:37 AM 24.8 °F 20.5 °F 23.0 °F 93% 29.47 in 3.0 mi South 3.5 mph - 0.00 in Snow Light Snow
1:53 AM 24.8 °F 20.5 °F 24.8 °F 100% 29.47 in 6.0 mi South 3.5 mph - 0.00 in   Overcast
1:56 AM 25.0 °F 20.7 °F 24.1 °F 96% 29.81 in 6.0 mi South 3.5 mph - 0.00 in Snow Light Snow
2:31 AM 24.8 °F - 23.0 °F 93% 29.46 in 8.0 mi Calm Calm - 0.00 in   Overcast
2:56 AM 25.0 °F - 23.0 °F 92% 29.80 in 4.0 mi Calm Calm - 0.00 in   Overcast
3:56 AM 25.0 °F 18.1 °F 21.9 °F 88% 29.81 in 8.0 mi WSW 5.8 mph - N/A   Overcast
4:41 AM 24.8 °F 20.5 °F 21.2 °F 86% 29.49 in 6.0 mi NNW 3.5 mph - 0.00 in Snow Light Snow
4:51 AM 24.8 °F 20.5 °F 21.2 °F 86% 29.50 in 5.0 mi NNW 3.5 mph - 0.00 in Snow Light Snow
5:05 AM 24.8 °F 20.5 °F 21.2 °F 86% 29.50 in 4.0 mi North 3.5 mph - 0.00 in Snow Light Snow
5:12 AM 24.8 °F 20.5 °F 21.2 °F 86% 29.50 in 4.0 mi North 3.5 mph - 0.00 in Snow Light Snow
5:56 AM 24.1 °F 19.7 °F 21.0 °F 88% 29.85 in 10.0 mi NE 3.5 mph - 0.00 in   Overcast
7:04 AM 24.8 °F 20.5 °F 19.4 °F 80% 29.55 in 10.0 mi North 3.5 mph - N/A   Overcast
7:56 AM 28.9 °F 21.9 °F 23.0 °F 78% 29.90 in 10.0 mi NNW 6.9 mph - 0.00 in   Overcast
8:38 AM 30.2 °F 17.8 °F 23.0 °F 75% 29.60 in 9.0 mi North 19.6 mph - N/A   Overcast
8:56 AM 30.0 °F 17.9 °F 24.1 °F 79% 29.93 in 5.0 mi North 18.4 mph - 0.00 in Snow Light Snow
9:40 AM 30.2 °F 20.2 °F 24.8 °F 80% 29.63 in 10.0 mi North 12.7 mph - 0.00 in   Overcast
9:54 AM 32.0 °F 22.1 °F 23.0 °F 69% 29.63 in 10.0 mi North 13.8 mph - 0.00 in   Overcast
9:56 AM 32.0 °F 22.1 °F 23.0 °F 69% 29.95 in 10.0 mi North 13.8 mph - 0.80 in   Overcast
10:06 AM 32.0 °F 19.8 °F 24.8 °F 75% 29.63 in 10.0 mi North 20.7 mph 26.5 mph N/A   Mostly Cloudy
10:34 AM 32.0 °F 21.2 °F 23.0 °F 69% 29.65 in 10.0 mi North 16.1 mph 21.9 mph N/A   Mostly Cloudy
10:46 AM 32.0 °F 20.8 °F 23.0 °F 69% 29.65 in 10.0 mi NNW 17.3 mph 24.2 mph N/A   Scattered Clouds
11:51 AM 33.8 °F 23.5 °F 24.8 °F 70% 29.66 in 10.0 mi North 16.1 mph 24.2 mph N/A   Mostly Cloudy
11:56 AM 35.1 °F 24.1 °F 24.1 °F 64% 29.97 in 10.0 mi NNW 19.6 mph 24.2 mph N/A   Mostly Cloudy
12:10 PM 33.8 °F 25.3 °F 26.6 °F 75% 29.66 in 10.0 mi NW 11.5 mph - N/A   Mostly Cloudy
12:56 PM 34.0 °F 24.6 °F 24.1 °F 67% 29.97 in 10.0 mi North 13.8 mph 23.0 mph N/A   Mostly Cloudy
1:56 PM 34.0 °F 27.2 °F 25.0 °F 70% 29.98 in 10.0 mi West 8.1 mph 21.9 mph N/A   Overcast
3:15 PM 37.4 °F 27.2 °F 24.8 °F 60% 29.68 in 10.0 mi NW 19.6 mph 26.5 mph N/A   Mostly Cloudy
3:23 PM 37.4 °F 27.8 °F 24.8 °F 60% 29.68 in 10.0 mi NW 17.3 mph 25.3 mph N/A   Scattered Clouds
3:32 PM 37.4 °F 28.5 °F 24.8 °F 60% 29.68 in 10.0 mi NW 15.0 mph - N/A   Mostly Cloudy
3:41 PM - - - N/A% - 1.8 mi North 19.6 mph 27.6 mph N/A   Unknown
3:49 PM 32.0 °F 20.5 °F 26.6 °F 80% 29.70 in 2.0 mi North 18.4 mph 26.5 mph 0.00 in Snow Light Snow
3:56 PM 32.0 °F 20.5 °F 26.1 °F 79% 30.00 in 4.0 mi North 18.4 mph 25.3 mph 0.00 in Snow Light Snow
4:56 PM 34.0 °F 26.6 °F 21.9 °F 61% 30.02 in 10.0 mi NNW 9.2 mph - 0.00 in   Overcast
5:56 PM 33.1 °F 24.9 °F 21.0 °F 61% 30.05 in 10.0 mi North 10.4 mph - N/A   Overcast
7:56 PM 28.9 °F 19.2 °F 14.0 °F 54% 30.09 in 10.0 mi North 11.5 mph 16.1 mph N/A   Clear
8:56 PM 27.0 °F 18.7 °F 12.0 °F 53% 30.12 in 10.0 mi NW 8.1 mph - N/A   Clear
9:56 PM 26.1 °F 14.5 °F 10.9 °F 53% 30.12 in 10.0 mi North 13.8 mph - N/A   Clear
10:56 PM 24.1 °F 18.2 °F 10.9 °F 57% 30.12 in 10.0 mi North 4.6 mph - N/A   Clear
11:56 PM 21.0 °F 11.4 °F 12.0 °F 68% 30.12 in 10.0 mi NW 8.1 mph - N/A   Clear